Ogden, KS

2:40 PM CST on February 11, 2016 (GMT -0600)
Manhattan Regional

Weather History for KMHK - May, 2013

Change the Weather History Date:

Wednesday, May 29, 2013

  Actual Average Record
Temperature  
Mean Temperature 75 °F 68 °F  
Max Temperature 87 °F 80 °F 93 °F (2000)
Min Temperature 63 °F 56 °F 45 °F (1997)
Degree Days  
Heating Degree Days 0 2  
Month to date heating degree days 157 122  
Since 1 July heating degree days 5175 5303  
Cooling Degree Days 10 5  
Month to date cooling degree days 106 73  
Year to date cooling degree days 123 90  
Growing Degree Days 24 (Base 50)    
Moisture  
Dew Point 65 °F    
Average Humidity 71    
Maximum Humidity 87    
Minimum Humidity 55    
Precipitation  
Precipitation 0.32 in 0.17 in 0.32 in (2013)
Month to date precipitation 2.87 4.12  
Year to date precipitation 8.92 10.84  
Sea Level Pressure  
Sea Level Pressure 29.63 in    
Wind  
Wind Speed 13 mph (South)    
Max Wind Speed 29 mph    
Max Gust Speed 36 mph    
Visibility 10 miles    
Events Rain , Thunderstorm    
T = Trace of Precipitation, MM = Missing Value Source: NWS Daily Summary

Daily Weather History Graph

Daily Weather History Graph

Search for Another Location

Airport or City:

Trip Planner

Search our weather history database for the weather conditions in past years. The results will help you decide how hot, cold, wet, or windy it might be!

Date:

Astronomy

May. 29, 2013 Rise Set
Actual Time 6:03 AM CDT 8:44 PM CDT
Civil Twilight 5:32 AM CDT 9:16 PM CDT
Nautical Twilight 4:53 AM CDT 9:55 PM CDT
Astronomical Twilight 4:09 AM CDT 10:40 PM CDT
Moon 12:09 AM CDT (5/29) 11:03 AM CDT (5/29)
Length of Visible Light 15h 44m
Length of Day
14h 41m
Waning Gibbous, 73% of the Moon is Illuminated
May 29
Waning Gibbous
May 31
Last Quarter
Jun 8
New
Jun 16
First Quarter
Jun 23
Full

Hourly Weather History & Observations

Time (CDT) Temp. Heat Index Dew Point Humidity Pressure Visibility Wind Dir Wind Speed Gust Speed Precip Events Conditions
12:52 AM 73.9 °F - 66.0 °F 76% 29.64 in 10.0 mi South 15.0 mph 28.8 mph N/A   Clear
1:52 AM 73.9 °F - 66.0 °F 76% 29.67 in 10.0 mi SSW 12.7 mph 19.6 mph N/A   Mostly Cloudy
2:52 AM 73.9 °F - 64.9 °F 73% 29.65 in 10.0 mi South 13.8 mph 24.2 mph N/A   Clear
3:52 AM 73.0 °F - 64.9 °F 76% 29.66 in 10.0 mi South 5.8 mph 20.7 mph N/A   Clear
4:52 AM 73.0 °F - 64.9 °F 76% 29.66 in 10.0 mi South 11.5 mph - N/A   Clear
5:52 AM 73.0 °F - 66.0 °F 79% 29.68 in 10.0 mi South 15.0 mph 21.9 mph 0.00 in Rain Light Rain
6:37 AM 71.6 °F - 66.2 °F 83% 29.71 in 9.0 mi South 9.2 mph - 0.01 in Rain , Thunderstorm Light Thunderstorms and Rain
6:52 AM 71.1 °F - 66.9 °F 87% 29.67 in 10.0 mi South 6.9 mph - 0.01 in Rain , Thunderstorm Light Rain
7:08 AM 71.6 °F - 66.2 °F 83% 29.70 in 10.0 mi South 4.6 mph - 0.00 in Thunderstorm Partly Cloudy
7:29 AM 71.6 °F - 66.2 °F 83% 29.70 in 10.0 mi Calm Calm - 0.00 in   Scattered Clouds
7:52 AM 72.0 °F - 66.9 °F 84% 29.66 in 10.0 mi SSE 9.2 mph - 0.00 in   Mostly Cloudy
8:00 AM 71.6 °F - 66.2 °F 83% 29.70 in 7.0 mi SSE 4.6 mph - 0.01 in Rain Light Rain
8:52 AM 72.0 °F - 66.9 °F 84% 29.67 in 10.0 mi SSE 6.9 mph - 0.01 in   Overcast
9:30 AM 73.4 °F - 68.0 °F 83% 29.66 in 10.0 mi SE 10.4 mph 16.1 mph N/A   Mostly Cloudy
9:52 AM 73.0 °F - 68.0 °F 84% 29.69 in 10.0 mi SW 13.8 mph 23.0 mph 0.00 in   Mostly Cloudy
9:59 AM 73.4 °F - 68.0 °F 83% 29.71 in 10.0 mi SSW 12.7 mph 21.9 mph N/A   Mostly Cloudy
10:11 AM 73.4 °F - 66.2 °F 78% 29.69 in 10.0 mi South 15.0 mph 23.0 mph N/A   Overcast
10:52 AM 75.9 °F - 68.0 °F 76% 29.65 in 10.0 mi South 15.0 mph 24.2 mph N/A   Overcast
11:52 AM 80.1 °F 82.7 °F 68.0 °F 67% 29.64 in 10.0 mi South 16.1 mph 29.9 mph N/A   Mostly Cloudy
12:01 PM 78.8 °F - 68.0 °F 69% 29.67 in 10.0 mi South 20.7 mph 29.9 mph N/A   Overcast
12:52 PM 81.0 °F 83.8 °F 68.0 °F 65% 29.64 in 10.0 mi South 16.1 mph 28.8 mph N/A   Overcast
1:52 PM 84.0 °F 86.5 °F 66.9 °F 56% 29.61 in 10.0 mi South 25.3 mph 32.2 mph N/A   Overcast
2:52 PM 84.9 °F 87.1 °F 66.0 °F 53% 29.57 in 10.0 mi South 20.7 mph 34.5 mph N/A   Mostly Cloudy
3:52 PM 84.0 °F 86.3 °F 66.0 °F 55% 29.56 in 10.0 mi South 23.0 mph 34.5 mph N/A   Overcast
4:52 PM 81.0 °F 83.3 °F 66.9 °F 62% 29.56 in 10.0 mi South 26.5 mph 35.7 mph N/A   Overcast
5:52 PM 79.0 °F - 66.9 °F 66% 29.56 in 10.0 mi South 19.6 mph 31.1 mph N/A   Overcast
6:24 PM 75.2 °F - 62.6 °F 65% 29.61 in 10.0 mi West 13.8 mph 24.2 mph N/A Thunderstorm Overcast
6:31 PM 71.6 °F - 59.0 °F 64% 29.62 in 10.0 mi WSW 12.7 mph - 0.00 in Rain , Thunderstorm Light Rain
6:52 PM 66.9 °F - 61.0 °F 81% 29.61 in 8.0 mi SW 11.5 mph - 0.02 in Rain , Thunderstorm Light Rain
7:18 PM 64.4 °F - 62.6 °F 94% 29.61 in 10.0 mi Variable 3.5 mph - 0.00 in   Overcast
7:34 PM 64.4 °F - 62.6 °F 94% 29.61 in 8.0 mi West 4.6 mph - 0.02 in Rain , Thunderstorm Light Thunderstorms and Rain
7:52 PM 64.9 °F - 62.1 °F 90% 29.61 in 10.0 mi NNW 4.6 mph - 0.04 in Rain , Thunderstorm Light Thunderstorms and Rain
8:11 PM 66.2 °F - 62.6 °F 88% 29.63 in 10.0 mi Calm Calm - 0.01 in Rain , Thunderstorm Light Thunderstorms and Rain
8:52 PM 64.9 °F - 62.1 °F 90% 29.61 in 10.0 mi Calm Calm - 0.01 in Rain , Thunderstorm Light Rain
9:09 PM 64.4 °F - 62.6 °F 94% 29.61 in 10.0 mi East 5.8 mph - 0.01 in Rain Light Rain
9:26 PM 66.2 °F - 62.6 °F 88% 29.59 in 10.0 mi East 6.9 mph - 0.02 in Rain , Thunderstorm Light Rain
9:41 PM 66.2 °F - 64.4 °F 94% 29.59 in 10.0 mi East 6.9 mph - 0.02 in Rain Light Rain
9:52 PM 68.0 °F - 64.9 °F 90% 29.56 in 10.0 mi Variable 5.8 mph - 0.02 in   Mostly Cloudy
10:09 PM 73.4 °F - 68.0 °F 83% 29.58 in 10.0 mi SSE 17.3 mph 28.8 mph N/A   Scattered Clouds
10:52 PM 68.0 °F - 64.9 °F 90% 29.52 in 10.0 mi SSE 10.4 mph - 0.00 in Rain Light Rain
11:52 PM 66.0 °F - 63.0 °F 90% 29.62 in 10.0 mi West 8.1 mph - 0.01 in Rain Light Rain